#timestamp,LO_Frequency,Hit,StdDev 
1547870415.2,286047001.2,N
1547870435.1,286046997.8,N
1547870436.0,286046997.8,N
1547870455.8,286046990.7,N
1547870475.7,286046987.5,N
1547870495.5,286046987.4,N
1547870515.3,286046983.9,N
1547870535.2,286046986.2,N
1547870555.9,286046987.7,N
1547870575.7,286046986.5,N
1547870595.6,286046986.7,N
1547870615.4,286046985.8,N
1547870635.3,286046987.1,N
1547870655.1,286046981.7,N
1547870656.0,286046981.7,N
1547870675.8,286046974.5,N
1547870695.7,286046979.8,N
1547870715.5,286046976.5,N
1547870735.3,286046974.5,N
1547870755.2,286046972.8,N
1547870775.0,286046973.6,N
1547870775.9,286046973.6,N
1547870795.8,286046980.2,N
1547870815.6,286046974.2,N
1547870835.5,286046977.7,N
1547870855.3,286046978.4,N
1547870875.1,286046984.6,N
1547870895.9,286046990.0,N
1547870915.7,286046988.3,N
1547870935.6,286046997.1,N
1547870955.4,286047002.1,N
1547870975.2,286047007.8,N
1547870995.1,286047007.1,N
1547870996.0,286047007.1,N
1547871015.8,286047002.3,N
1547871035.6,286046992.3,N
1547871055.5,286046986.7,N
1547871075.3,286046985.5,N
1547871095.2,286046989.2,N
1547871115.0,286046984.6,N
1547871115.9,286046984.6,N
1547871135.8,286046986.6,N
1547871155.6,286046982.4,N
1547871175.5,286046984.2,N
1547871195.5,286046982.0,N
1547871215.3,286046981.3,N
1547871235.1,286046980.4,N
1547871255.9,286046979.5,N
1547871275.7,286046983.2,N
1547871295.6,286046986.6,N
1547871315.4,286046983.4,N
1547871335.2,286046980.4,N
1547871355.1,286046980.5,N
1547871356.0,286046980.5,N
1547871375.8,286046981.9,N
1547871395.7,286046987.1,N
1547871415.5,286046996.0,N
1547871435.3,286046993.0,N
1547871455.2,286046992.3,N
1547871475.9,286046995.3,N
1547871495.7,286047008.5,N
1547871515.6,286047000.0,N
1547871535.4,286046995.8,N
1547871555.3,286046989.1,N
1547871575.1,286046986.0,N
1547871576.0,286046986.0,N
1547871595.8,286046991.2,N
1547871615.7,286046995.1,N
1547871635.5,286046988.2,N
1547871655.3,286046984.7,N
1547871675.2,286046982.5,N
1547871695.0,286046985.6,N
1547871695.9,286046985.6,N
1547871715.8,286046988.9,N
1547871735.6,286046977.7,Y
1547871755.4,286046991.2,P
1547871775.3,286046994.8,N
1547871795.1,286046992.8,N
1547871815.9,286046997.9,N
1547871835.7,286047000.2,N
1547871855.5,286047003.9,N
1547871875.4,286047009.9,N
1547871895.2,286047009.7,N
1547871915.0,286047010.6,N
1547871916.0,286047010.6,N
1547871935.8,286047016.7,N
1547871955.6,286047019.4,N
1547871975.5,286047020.6,N
1547871995.3,286047019.9,N
1547872015.1,286047010.8,N
1547872035.9,286047019.0,N
1547872055.7,286047022.3,N
1547872075.6,286047019.0,N
1547872095.4,286047012.5,N
1547872115.2,286047010.0,N
1547872135.1,286047012.2,N
1547872136.0,286047012.2,N
1547872155.8,286047003.2,N
1547872175.6,286046998.1,N
1547872195.5,286046996.1,N
1547872215.3,286046997.6,N
1547872235.2,286046993.8,N
1547872255.9,286046995.3,N
1547872275.7,286047004.7,N
1547872295.6,286047005.5,N
1547872315.4,286047010.6,N
1547872335.3,286047000.5,N
1547872355.1,286047003.6,N
1547872356.0,286047003.6,N
1547872375.8,286047007.3,N
1547872395.7,286046999.5,N
1547872415.5,286047002.0,N
1547872435.3,286047002.1,N
1547872455.2,286047004.3,N
1547872475.0,286047003.3,N
1547872475.9,286047003.3,N
1547872495.8,286047006.9,N
1547872515.6,286047004.5,N
1547872535.4,286047010.8,N
1547872555.3,286047009.9,N
1547872575.1,286047011.9,N
1547872595.9,286047019.6,N
1547872615.7,286047013.8,N
1547872635.5,286047008.4,N
1547872655.4,286047008.1,N
1547872675.2,286047018.0,Y
1547872695.0,286047006.5,P
1547872695.9,286047006.5,P
1547872715.8,286047012.1,P
1547872735.6,286047016.5,Y
1547872755.5,286047003.3,P
1547872775.3,286046995.2,N
1547872795.1,286046990.3,N
1547872815.9,286046985.5,N
1547872835.7,286047002.7,N
1547872855.5,286046997.8,N
1547872875.4,286046999.1,N
1547872895.2,286046997.3,N
1547872915.1,286046989.0,N
1547872916.0,286046989.0,N
1547872935.8,286046989.1,N
1547872955.6,286046987.8,N
1547872975.5,286046996.4,N
1547872995.3,286046989.0,N
1547873015.2,286046991.9,N
1547873035.9,286046993.8,N
1547873055.7,286046996.8,N
1547873075.6,286046998.3,N
1547873095.4,286046995.6,N
1547873115.2,286046996.0,N
1547873135.1,286046999.6,N
1547873136.0,286046999.6,N
1547873155.8,286046996.8,N
1547873175.7,286046993.3,N
1547873195.5,286046992.8,N
1547873215.3,286046988.8,N
1547873235.2,286046989.8,N
1547873255.0,286046991.4,N
1547873255.9,286046991.4,N
1547873275.8,286046998.4,N
1547873295.6,286046995.9,N
1547873315.4,286047002.2,N
1547873335.3,286046997.7,N
1547873355.1,286046992.2,N
1547873375.8,286046995.3,N
1547873395.7,286046992.2,N
1547873445.6,286047000.5,E
1547873455.5,286047001.2,N
1547873475.3,286047003.2,P
1547873495.1,286047001.8,N
1547873515.9,286047002.8,Y
1547873535.7,286046999.0,P
1547873555.6,286047001.1,N
1547873575.4,286047006.5,P
1547873595.2,286047002.7,N
1547873615.1,286047003.2,N
1547873616.0,286047003.2,N
1547873635.8,286047005.7,N
1547873655.7,286047007.7,Y
1547873675.5,286046995.0,P
1547873695.3,286046996.4,N
1547873715.2,286046987.4,P
1547873735.0,286046993.8,N
1547873735.9,286046993.8,N
1547873755.8,286046996.1,N
1547873775.6,286047002.8,N
1547873795.4,286047010.2,N
1547873815.3,286047013.2,N
1547873835.1,286047017.3,N
1547873855.8,286047012.3,N
1547873875.7,286047013.5,N
1547873895.5,286047007.9,N
1547873915.4,286047011.9,N
1547873935.2,286047007.4,N
1547873955.0,286047009.8,N
1547873955.9,286047009.8,N
1547873975.8,286047014.5,N
1547873995.6,286047018.2,N
